Date String (YYYY-MM-DD hh:mm:ss) UTC,Instrument flags,absolute air pressure of the measurement (hPa),sample flow rate (lpm),inlet stack bypass flow (lpm),air temperature of the measurement (°C),ambient temperature measured by the external sensor (°C),aerosol sample conditioner tube jacket temperature (°C),OPC LED temperature (°C),internal box temperature (°C),relative humidity of the measurement (%),span deviation,mass concentration of particles derived from Lorenz-Mie calculation of OPC scattering (μg/m³),mass concentration of particles derived from Lorenz-Mie calculation of OPC scattering (μg/m³),mass concentration of particles derived from Lorenz-Mie calculation of OPC scattering (μg/m³)
DateTimeUTC,F1_M11,P_M11,Q1_M11,Q2_M11,T1_M11,T2_M11,T3_M11,T4_M11,T5_M11,U1_M11,ZSPAN_M11,X0_M11,X2_M11,X1_M11
2023-09-05 15:00:00,SystemResetWarning,0832.7,4.99,000.00,028.7,027.6,000.0,037.0,030.4,22.8,0000.0,0005.86,0001.77,0001.26
2023-09-05 15:01:00,SystemResetWarning,0832.6,4.99,000.00,028.7,026.7,000.0,036.9,030.2,22.8,0000.0,0006.47,0001.77,0001.27
2023-09-05 15:02:00,SystemResetWarning,0832.6,5.00,000.00,028.6,025.1,000.0,036.8,029.6,23.0,0000.0,0007.06,0001.83,0001.28
2023-09-05 15:03:00,SystemResetWarning,0832.6,5.01,000.00,028.4,024.6,000.0,036.8,029.5,23.5,0000.0,0007.40,0001.92,0001.29
2023-09-05 15:04:00,SystemResetWarning,0832.6,5.01,000.00,028.3,024.8,000.0,036.8,029.4,23.7,0000.0,0007.69,0001.93,0001.30
2023-09-05 15:05:00,SystemResetWarning,0832.6,4.99,000.00,028.3,025.1,000.0,036.8,029.5,23.5,0000.0,0007.84,0002.00,0001.32
2023-09-05 15:06:00,SystemResetWarning,0832.6,4.99,000.00,028.2,025.5,000.0,036.7,029.5,23.6,0000.0,0007.89,0002.05,0001.34
2023-09-05 15:07:00,SystemResetWarning,0832.6,5.01,000.00,028.2,025.8,000.0,036.7,029.6,23.6,0000.0,0007.85,0002.13,0001.35
2023-09-05 15:08:00,SystemResetWarning,0832.6,5.01,000.00,028.2,026.1,000.0,036.7,029.7,23.5,0000.0,0007.90,0002.17,0001.36
2023-09-05 15:09:00,SystemResetWarning,0832.6,5.00,000.00,028.3,026.3,000.0,036.7,029.8,23.7,0000.0,0007.84,0002.18,0001.37
2023-09-05 15:10:00,SystemResetWarning,0832.6,5.00,000.00,028.3,026.5,000.0,036.7,029.8,23.6,0000.0,0008.00,0002.20,0001.39
2023-09-05 15:11:00,SystemResetWarning,0832.7,5.00,000.00,028.3,026.7,000.0,036.7,029.9,23.8,0000.0,0008.11,0002.17,0001.41
2023-09-05 15:12:00,SystemResetWarning,0832.7,5.00,000.00,028.3,026.8,000.0,036.7,029.9,23.4,0000.0,0008.08,0002.19,0001.42
2023-09-05 15:13:00,SystemResetWarning,0832.8,4.99,000.00,028.3,027.0,000.0,036.7,030.0,23.3,0000.0,0008.13,0002.21,0001.41
2023-09-05 15:14:00,SystemResetWarning,0832.7,5.00,000.00,028.4,027.1,000.0,036.7,030.0,23.3,0000.0,0007.95,0002.21,0001.42
2023-09-05 15:15:00,SystemResetWarning,0832.7,5.00,000.00,028.4,027.1,000.0,036.7,030.0,23.6,0000.0,0008.02,0002.19,0001.43
2023-09-05 15:16:00,SystemResetWarning,0832.8,5.00,000.00,028.4,027.2,000.0,036.8,030.1,23.8,0000.0,0007.98,0002.16,0001.41
2023-09-05 15:17:00,SystemResetWarning,0832.8,5.00,000.00,028.5,027.3,000.0,036.8,030.1,23.7,0000.0,0008.08,0002.23,0001.41
2023-09-05 15:18:00,SystemResetWarning,0832.8,5.00,000.00,028.5,027.3,000.0,036.8,030.1,23.6,0000.0,0008.60,0002.19,0001.42
2023-09-05 15:19:00,SystemResetWarning,0832.8,5.00,000.00,028.5,027.4,000.0,036.8,030.2,23.5,0000.0,0009.52,0002.20,0001.43
2023-09-05 15:20:00,SystemResetWarning,0832.8,5.01,000.00,028.5,027.5,000.0,036.8,030.2,23.4,0000.0,0009.59,0002.20,0001.43
2023-09-05 15:21:00,SystemResetWarning,0832.8,5.00,000.00,028.6,027.5,000.0,036.8,030.2,23.6,0000.0,0009.18,0002.21,0001.41
2023-09-05 15:22:00,SystemResetWarning,0832.8,5.00,000.00,028.6,027.5,000.0,036.9,030.3,23.3,0000.0,0009.28,0002.25,0001.41
2023-09-05 15:23:00,SystemResetWarning,0832.8,5.00,000.00,028.6,027.6,000.0,036.9,030.3,23.4,0000.0,0009.84,0002.25,0001.42
2023-09-05 15:24:00,SystemResetWarning,0832.8,5.00,000.00,028.7,027.6,000.0,036.9,030.4,23.1,0000.0,0009.43,0002.21,0001.42
2023-09-05 15:25:00,SystemResetWarning,0832.8,4.99,000.00,028.6,026.7,000.0,036.9,030.1,23.3,0000.0,0009.42,0002.21,0001.42
2023-09-05 15:26:00,SystemResetWarning,0832.8,5.00,000.00,028.5,025.0,000.0,036.8,029.5,23.3,0000.0,0009.21,0002.23,0001.41
2023-09-05 15:27:00,SystemResetWarning,0832.8,5.01,000.00,028.4,024.5,000.0,036.7,029.4,23.5,0000.0,0009.10,0002.21,0001.42
2023-09-05 15:28:00,SystemResetWarning,0832.8,5.02,000.00,028.3,024.8,000.0,036.7,029.3,24.2,0000.0,0009.02,0002.11,0001.43
2023-09-05 15:29:00,SystemResetWarning,0832.8,5.00,000.00,028.2,025.1,000.0,036.7,029.4,24.4,0000.0,0009.10,0002.12,0001.44
2023-09-05 15:30:00,SystemResetWarning,0832.9,5.00,000.00,028.2,025.5,000.0,036.7,029.5,24.2,0000.0,0008.39,0002.12,0001.43
2023-09-05 15:31:00,SystemResetWarning,0832.9,5.00,000.00,028.2,025.8,000.0,036.7,029.6,24.2,0000.0,0008.36,0002.13,0001.44
2023-09-05 15:32:00,SystemResetWarning,0833.5,5.00,000.00,028.2,026.1,000.0,036.7,029.7,24.2,0000.0,0008.35,0002.11,0001.45
2023-09-05 15:33:00,SystemResetWarning,0832.9,5.00,000.00,028.2,026.3,000.0,036.7,029.7,24.5,0000.0,0007.89,0002.13,0001.45
2023-09-05 15:34:00,SystemResetWarning,0833.0,5.00,000.00,028.2,026.6,000.0,036.7,029.8,23.9,0000.0,0006.90,0002.17,0001.45
2023-09-05 15:35:00,SystemResetWarning,0832.9,5.00,000.00,028.3,026.7,000.0,036.7,029.9,23.9,0000.0,0007.54,0002.32,0001.47
2023-09-05 15:36:00,SystemResetWarning,0832.9,4.99,000.00,028.3,026.9,000.0,036.7,029.9,23.9,0000.0,0007.59,0002.38,0001.49
2023-09-05 15:37:00,SystemResetWarning,0832.9,4.99,000.00,028.3,027.0,000.0,036.7,029.9,23.9,0000.0,0007.88,0002.43,0001.51
2023-09-05 15:38:00,SystemResetWarning,0833.0,5.00,000.00,028.4,027.1,000.0,036.7,030.0,24.1,0000.0,0008.09,0002.44,0001.53
2023-09-05 15:39:00,SystemResetWarning,0833.1,5.01,000.00,028.4,027.2,000.0,036.7,030.0,23.8,0000.0,0008.09,0002.45,0001.54
2023-09-05 15:40:00,SystemResetWarning,0833.0,5.01,000.00,028.4,027.3,000.0,036.7,030.1,23.5,0000.0,0007.42,0002.44,0001.53
2023-09-05 15:41:00,SystemResetWarning,0833.0,4.99,000.00,028.4,027.4,000.0,036.8,030.1,23.5,0000.0,0007.45,0002.43,0001.54
2023-09-05 15:42:00,SystemResetWarning,0833.0,5.00,000.00,028.5,027.4,000.0,036.8,030.2,23.5,0000.0,0007.43,0002.47,0001.56
2023-09-05 15:43:00,SystemResetWarning,0833.2,4.99,000.00,028.5,027.5,000.0,036.8,030.2,24.1,0000.0,0007.47,0002.50,0001.58
2023-09-05 15:44:00,SystemResetWarning,0833.2,5.00,000.00,028.5,027.5,000.0,036.8,030.2,23.8,0000.0,0008.23,0002.50,0001.58
2023-09-05 15:45:00,SystemResetWarning,0833.1,4.99,000.00,028.6,027.0,000.0,036.8,030.1,23.6,0000.0,0008.64,0002.49,0001.59
2023-09-05 15:46:00,SystemResetWarning,0833.0,5.00,000.00,028.5,025.3,000.0,036.7,029.7,23.7,0000.0,0009.01,0002.40,0001.59
2023-09-05 15:47:00,SystemResetWarning,0832.9,5.01,000.00,028.4,024.5,000.0,036.6,029.5,24.1,0000.0,0008.71,0002.27,0001.58
2023-09-05 15:48:00,SystemResetWarning,0832.9,5.02,000.00,028.3,024.6,000.0,036.6,029.4,24.4,0000.0,0008.54,0002.19,0001.56
2023-09-05 15:49:00,SystemResetWarning,0833.1,4.99,000.00,028.2,025.0,000.0,036.6,029.4,24.4,0000.0,0008.57,0002.16,0001.56
2023-09-05 15:50:00,SystemResetWarning,0833.0,4.99,000.00,028.1,025.3,000.0,036.6,029.4,24.5,0000.0,0009.17,0002.19,0001.55
2023-09-05 15:51:00,SystemResetWarning,0833.0,5.02,000.00,028.1,025.7,000.0,036.6,029.5,24.8,0000.0,0009.59,0002.14,0001.55
2023-09-05 15:52:00,SystemResetWarning,0833.0,5.00,000.00,028.2,026.0,000.0,036.6,029.6,24.4,0000.0,0009.36,0002.21,0001.56
2023-09-05 15:53:00,SystemResetWarning,0833.1,5.00,000.00,028.2,026.3,000.0,036.6,029.7,24.0,0000.0,0009.28,0002.21,0001.55
2023-09-05 15:54:00,SystemResetWarning,0833.0,5.00,000.00,028.2,026.5,000.0,036.6,029.8,24.2,0000.0,0009.45,0002.19,0001.55
2023-09-05 15:55:00,SystemResetWarning,0833.0,5.00,000.00,028.2,026.7,000.0,036.6,029.8,24.3,0000.0,0009.01,0002.21,0001.54
2023-09-05 15:56:00,SystemResetWarning,0833.0,5.00,000.00,028.3,026.9,000.0,036.7,029.9,24.3,0000.0,0008.48,0002.21,0001.54
2023-09-05 15:57:00,SystemResetWarning,0833.0,5.00,000.00,028.3,027.0,000.0,036.7,029.9,24.0,0000.0,0008.19,0002.21,0001.54
2023-09-05 15:58:00,SystemResetWarning,0833.1,5.00,000.00,028.3,027.1,000.0,036.7,030.0,24.5,0000.0,0007.89,0002.27,0001.55
2023-09-05 15:59:00,SystemResetWarning,0833.2,5.00,000.00,028.4,027.2,000.0,036.7,030.0,23.9,0000.0,0007.90,0002.29,0001.56
